STARLINK-32331, 61623

Orbit data source: Space-Track

STARLINK-32331, 61623 is a payload satellite owned by SpaceX/Seattle (US) in LEO that was launched on Wed, 23 Oct 2024 UTC via an FALCON 9 launch vehicle from the Air Force Eastern Test Range (AFETR). Payload-class satellites include a variety of spacecraft equipped with specific instruments for various scientific and technological missions. These include communications satellites like Starlink; space stations such as the ISS; scientific satellites like the Hubble; Earth observation satellites from companies like Planet Labs, Umbra, and HawkEye 360; GPS; miniature CubeSats for education and research; and military/defense satellites.

Loading next visibility...
Identifier
61623, 2024-191C
Orbit
LEO
Last TLE update
4 hours ago
Origin
Manufacturer
SpaceX/Seattle
Mission
Operational Commercial Communications
Bus & Motor
STARLINK V2M, Unknown motor
Mass
730 kg wet, ~700 kg dry
Launch date (UTC)
2024-10-23 (7 months ago)
Launch vehicle
FALCON 9
Launch site
Air Force Eastern Test Range (AFETR)
Object type
Payload
Rocket body
Debris
Shape & HBR
Box + 2 Pan, 29 m
Radar Cross Section
36.964 m², Large (>1 m²)

Expand to show TLE details & history

TLE from 4 hours ago
0 STARLINK-32331
1 61623U 24191C   25134.13923866  .00000186  00000-0  16271-4 0  9994
2 61623  43.0039  49.7074 0000471  42.0264 318.0624 15.27573111 32338
Epoch: 2025-05-14T03:20Z
Definitive object data (Epoch: 2025-05-14T03:20:30.22Z)
Latitude
0.00001°
Longitude
127.45358°
Altitude
482.605 km
Speed
7.626 km/s
True Right ascension
03h 18m 49s
True Declination
0° 00' 00"
Sunlit
Object was in daylight at TLE epoch
Visualization TLE readout
Latitude
-40.97183°
Longitude
58.59986°
Altitude
495.661 km
Speed
7.617 km/s
Apparent Right ascension
01h 22m 03s
Apparent Declination
-48° 21' 53"
Sunlit
Object is in daylight
Visualization observer readout
Local Sidereal Time
16:12:31
Azimuth
119.98° SE
Elevation
-58.712°
Doppler factor
1
Orbital elements
Apogee altitude
485.337 km
Perigee altitude
484.691 km
Semi-major axis
6,863.151 km
Eccentricity
0.0000471
Inclination
43.0039°
RAAN
49.7074°
Arg. of periapsis
42.0264°
True anomaly
318.05879°
Mean anomaly
318.0624°
Eccentric anomaly
318.0606°
Mean motion
3.81731 °/min
BSTAR
0.000016271
Orbital period
94.31 mins
Loading maneuver chart data...
Loading SW <> Apogee altitude chart data...
Loading historical data...
Loading historical data...
Loading historical data...
Loading historical data...
Loading historical data...
Loading historical data...
Loading historical data...

STARLINK-32331 Visibility forecast

Observer location: undefined°, undefined°

Span
Click to sort rows by Start time (UTC) header in descending order
Start Az.
Max El. time (UTC)
Max El. Az.
Max El.
End time (UTC)
End Az.
4 mins2025-05-14 20:47:45.740Z174.256° S2025-05-14 20:49:45.740Z135.307° SSE16.746°2025-05-14 20:51:45.740Z101.97° ESE
5 mins2025-05-14 22:25:45.740Z241.356° WSW2025-05-14 22:27:45.740Z189.59° SSW43.886°2025-05-14 22:30:45.740Z74.545° E
5 mins2025-05-15 00:04:45.740Z286.127° WNW2025-05-15 00:06:45.740Z339.877° N37.947°2025-05-15 00:09:45.740Z70.064° E
6 mins2025-05-15 01:43:45.740Z292.307° WNW2025-05-15 01:45:45.740Z323.918° NNW41.531°2025-05-15 01:49:45.740Z99.045° ESE
5 mins2025-05-15 03:22:45.740Z265.563° W2025-05-15 03:24:45.740Z219.304° SW28.461°2025-05-15 03:27:45.740Z150.234° SSE
|